Zurück zum Katalog

STARLINK-3708

AktivKommunikationVLEO
NORAD 52111·PAYLOAD·🇺🇸 United States

Gestartet Mar 19, 2022 von Cape Canaveral Space Force Station

Loading…

Nächste Überflüge (nächste 24 Stunden)

TLE

AktuellSource: CelesTrak SupGP

Epoche: Sep 14, 2026, 14:29 UTC

1 52111C 22029Z   26257.60395833  .00040175  00000+0  11873-2 0  2579
2 52111  53.1578 296.9403 0001282  76.7088  37.4246 15.34362387    12

Verfolge STARLINK-3708 in Echtzeit mit AllMySat

Download on the App Store